W4BBB Weather Reports


time (UTC)temp
C
wind
direction
speed
KPH
gust
KPH
rain 1hr
cm
rain 24hr
cm
rain mn
cm
humidity
%
barometer
mb
20260509013016 -17 0.0 0.0 0.00 0.00 0.00 1020.8
20260509011511 -17 0.0 0.0 0.00 0.00 0.00 1020.7
20260509010006 -17 0.0 0.0 0.00 0.00 0.00 1020.7
20260509004502 -17 0.0 0.0 0.00 0.00 0.00 1020.9
20260509003058 -17 0.0 0.0 0.00 0.00 0.00 1021.0
20260509001555 13 63 0.0 0.0 0.00 0.00 0.00 62 1021.0
20260509000051 13 63 0.0 0.0 0.00 0.00 0.00 63 1021.1
20260508234550 14 63 0.0 0.0 0.00 0.00 0.00 62 1021.1
20260508233050 15 63 0.0 0.0 0.00 0.00 0.00 61 1021.1
20260508231552 15 63 0.0 0.0 0.00 0.00 0.00 63 1021.1
20260508230051 16 63 0.0 1.6 0.00 0.00 0.00 61 1021.2
20260508224551 16 63 0.0 0.0 0.00 0.00 0.00 59 1021.1
20260508223049 16 63 0.0 0.0 0.00 0.00 0.00 57 1021.3
20260508221544 17 63 0.0 4.8 0.00 0.00 0.00 53 1021.4
20260508220041 17 341 0.0 0.0 0.00 0.00 0.00 53 1021.3
20260508214557 18 218 0.0 0.0 0.00 0.00 0.00 54 1021.5
20260508213039 18 214 0.0 0.0 0.00 0.00 0.00 55 1021.6
20260508211539 18 198 0.0 0.0 0.00 0.00 0.00 58 1021.7
20260508210038 18 198 0.0 0.0 0.00 0.00 0.00 57 1021.6
20260508204537 18 198 0.0 0.0 0.00 0.00 0.00 56 1021.7
20260508203034 18 198 0.0 0.0 0.00 0.00 0.00 59 1021.8
20260508201533 18 198 0.0 0.0 0.00 0.00 0.00 56 1021.8
20260508200030 18 198 0.0 0.0 0.00 0.00 0.00 56 1022.4
20260508194528 18 198 0.0 0.0 0.00 0.00 0.00 54 1022.5
20260508193025 18 198 0.0 0.0 0.00 0.00 0.00 51 1023.1
20260508191524 19 198 0.0 0.0 0.00 0.00 0.00 49 1023.4
20260508190038 20 105 0.0 0.0 0.00 0.00 0.00 52 1023.6
20260508184528 20 105 0.0 0.0 0.00 0.00 0.00 50 1023.8
20260508183028 20 40 0.0 0.0 0.00 0.00 0.00 50 1024.1
20260508181515 19 41 0.0 0.0 0.00 0.00 0.00 49 1024.1
20260508180012 18 41 0.0 0.0 0.00 0.00 0.00 53 1024.2
20260508174510 19 41 0.0 0.0 0.00 0.00 0.00 51 1024.5
20260508173006 17 41 0.0 0.0 0.00 0.00 0.00 55 1024.8
20260508171504 17 41 0.0 0.0 0.00 0.00 0.00 54 1025.1
20260508170107 16 41 0.0 0.0 0.00 0.00 0.00 57 1025.4
20260508164600 15 41 0.0 0.0 0.00 0.00 0.00 57 1025.4
20260508163054 16 341 0.0 0.0 0.00 0.00 0.00 56 1025.8
20260508161600 15 341 0.0 0.0 0.00 0.00 0.00 55 1026.2
20260508160052 14 341 0.0 3.2 0.00 0.00 0.00 57 1026.2
20260508154547 14 341 0.0 0.0 0.00 0.00 0.00 57 1026.4
20260508153053 14 341 0.0 4.8 0.00 0.00 0.00 56 1026.6
20260508151541 15 234 0.0 0.0 0.00 0.00 0.00 55 1026.8
20260508150037 15 234 0.0 0.0 0.00 0.00 0.00 54 1026.8
20260508144535 15 234 0.0 0.0 0.00 0.00 0.00 53 1026.7
20260508143030 14 234 0.0 0.0 0.00 0.00 0.00 53 1026.7
20260508141526 14 234 0.0 0.0 0.00 0.00 0.00 55 1026.9
20260508140024 13 234 0.0 1.6 0.00 0.00 0.00 56 1027.0
20260508134518 13 223 0.0 3.2 0.00 0.00 0.00 56 1026.9
20260508133014 12 226 0.0 8.0 0.00 0.00 0.00 52 1026.9
20260508131510 11 176 0.0 6.4 0.00 0.00 0.00 55 1026.7
20260508130010 11 186 0.0 8.0 0.00 0.00 0.00 54 1026.8
20260508124503 10 194 0.0 0.0 0.00 0.00 0.00 55 1026.8
20260508123116 9 193 0.0 0.0 0.00 0.00 0.00 55 1026.6
20260508121607 -17 0.0 0.0 0.00 0.00 0.00 1026.4
20260508120106 -17 0.0 0.0 0.00 0.00 0.00 1026.2
20260508114556 -17 0.0 0.0 0.00 0.00 0.00 1026.0
20260508113042 -17 0.0 0.0 0.00 0.00 0.00 1025.8
20260508111541 -17 0.0 0.0 0.00 0.00 0.00 1025.5
20260508110034 -17 0.0 0.0 0.00 0.00 0.00 1025.3
20260508104532 -17 0.0 0.0 0.00 0.00 0.00 1025.1
20260508103032 -17 0.0 0.0 0.00 0.00 0.00 1024.9
20260508101520 -17 0.0 0.0 0.00 0.00 0.00 1024.9
20260508100016 -17 0.0 0.0 0.00 0.00 0.00 1024.6
20260508094511 -17 0.0 0.0 0.00 0.00 0.00 1024.6
20260508093008 -17 0.0 0.0 0.00 0.00 0.00 1024.5
20260508091507 -17 0.0 0.0 0.00 0.00 0.00 1024.6
20260508090113 -17 0.0 0.0 0.00 0.00 0.00 1024.6
20260508084557 -17 0.0 0.0 0.00 0.00 0.00 1024.5
20260508083050 -17 0.0 0.0 0.00 0.00 0.00 1024.5
20260508081545 -17 0.0 0.0 0.00 0.00 0.00 1024.6
20260508080040 -17 0.0 0.0 0.00 0.00 0.00 1024.4
20260508074536 -17 0.0 0.0 0.00 0.00 0.00 1024.6
20260508073036 -17 0.0 0.0 0.00 0.00 0.00 1024.5
20260508071532 -17 0.0 0.0 0.00 0.00 0.00 1024.7
20260508070025 -17 0.0 0.0 0.00 0.00 0.00 1024.7
20260508064525 -17 0.0 0.0 0.00 0.00 0.00 1024.8
20260508063016 -17 0.0 0.0 0.00 0.00 0.00 1024.8
20260508061511 -17 0.0 0.0 0.00 0.00 0.00 1024.7
20260508060005 -17 0.0 0.0 0.00 0.00 0.00 1025.0
20260508054503 -17 0.0 0.0 0.00 0.00 0.00 1025.0
20260508053106 -17 0.0 0.0 0.00 0.00 0.00 1024.9
20260508051553 -17 0.0 0.0 0.00 0.00 0.00 1025.1
20260508050048 -17 0.0 0.0 0.00 0.00 0.00 1025.0
20260508044544 -17 0.0 0.0 0.00 0.00 0.00 1024.9
20260508043054 -17 0.0 0.0 0.00 0.00 0.00 1024.8
20260508041545 -17 0.0 0.0 0.00 0.00 0.00 1024.8
20260508040037 -17 0.0 0.0 0.00 0.00 0.00 1024.6
20260508034527 -17 0.0 0.0 0.00 0.00 0.00 1024.4
20260508033022 -17 0.0 0.0 0.00 0.00 0.00 1024.6
20260508031520 -17 0.0 0.0 0.00 0.00 0.00 1024.7
20260508030014 -17 0.0 0.0 0.00 0.00 0.00 1024.5
20260508024509 -17 0.0 0.0 0.00 0.00 0.00 1024.4
20260508023007 -17 0.0 0.0 0.00 0.00 0.00 1024.6
20260508021501 -17 0.0 0.0 0.00 0.00 0.00 1024.5
20260508014553 -17 0.0 0.0 0.00 0.00 0.00 1023.8